Location: Paddlesworth
(51.1000°N, 1.1333°E)
Time: 02:41:39
(UTC+00:00)

NOSS 3-3 (C) - Pass Details

Date: 11 May 2021
Orbit: 807 x 1405 km, 63.4° (Epoch: 06 June)

Event Time Altitude Azimuth Distance (km) Brightness Sun altitude
Rises 21:20:56 0° 225° (SW) 3,409 6.8 -13.3°
Reaches altitude 10° 21:23:16 10° 226° (SW) 2,526 6.1 -13.5°
Maximum altitude 21:29:08 84° 315° (NW) 968 4.0 -14.1°
Drops below altitude 10° 21:35:56 10° 44° (NE) 2,911 6.6 -14.7°
Sets 21:38:48 0° 46° (NE) 3,965 7.3 -14.9°
